Location: Enborne
(51.3833°N, 1.3667°W)
Time: 13:36:29
(UTC+00:00)

Cosmos 1844 Rocket - Pass Details

Date: 24 January 2021
Orbit: 826 x 843 km, 71.0° (Epoch: 05 March)

Event Time Altitude Azimuth Distance (km) Brightness Sun altitude
Rises 18:42:53 0° 219° (SW) 3,390 6.6 -18.6°
Reaches altitude 10° 18:45:21 10° 223° (SW) 2,458 5.8 -19.0°
Maximum altitude 18:50:57 63° 304° (NW) 941 3.1 -19.9°
Enters shadow 18:55:39 15° 24° (NNE) 2,132 4.5 -20.6°
